period_start,C,m1,H,J0,J1,J2,J3,J4,J5,JA,JB,JC,JD,JJ,JK,JN,#
2013-07-18 00:00:29,0.00,0.27,0.00,29.36,31.20,32.99,5.80,32.29,1015.67,2041.12,3330.01,3259.03,3535.00,350.15,316.39,31.13,0000 0000 0000 0000 000000
2013-07-18 00:01:29,-0.01,0.27,0.00,29.35,31.20,33.09,5.76,32.33,1015.66,2041.08,3330.01,3259.01,3534.99,350.74,317.22,31.13,0000 0000 0000 0000 000000
2013-07-18 00:02:29,-0.01,0.27,0.00,29.35,31.22,33.09,5.77,32.67,1015.64,2041.04,3330.00,3259.00,3534.93,349.52,316.86,31.14,0000 0000 0000 0000 000000
2013-07-18 00:03:29,-0.00,0.27,0.00,29.39,31.22,33.13,5.87,32.75,1015.64,2041.06,3330.00,3259.00,3534.76,351.31,317.96,31.15,0000 0000 0000 0000 000000
2013-07-18 00:04:29,0.04,0.27,0.00,29.40,31.22,33.08,5.77,32.46,1015.64,2041.05,3330.00,3259.00,3534.56,349.70,316.55,31.15,0000 0000 0000 0000 000000
2013-07-18 00:05:29,0.01,0.27,0.00,29.39,31.22,33.09,5.76,32.67,1015.64,2041.05,3330.00,3259.00,3534.45,349.44,316.28,31.16,0000 0000 0000 0000 000000
2013-07-18 00:06:30,0.02,0.27,0.00,29.38,31.22,32.99,5.84,32.63,1015.64,2041.04,3330.00,3259.00,3534.30,349.50,316.39,31.16,0000 0000 0000 0000 000000
2013-07-18 00:07:30,0.00,0.27,0.00,29.35,31.22,33.09,5.69,32.25,1015.65,2041.02,3329.98,3258.98,3534.15,349.13,316.25,31.17,0000 0000 0000 0000 000000
2013-07-18 00:08:30,0.00,0.27,0.00,29.38,31.22,33.07,5.79,32.88,1015.67,2041.02,3329.96,3258.98,3534.08,350.20,317.24,31.18,0000 0000 0000 0000 000000
2013-07-18 00:09:31,0.01,0.27,0.00,29.33,31.23,33.08,5.71,32.58,1015.66,2041.03,3329.96,3258.99,3534.11,348.47,315.50,31.18,0000 0000 0000 0000 000000
2013-07-18 00:10:31,0.00,0.27,0.00,29.33,31.24,33.05,5.87,32.46,1015.64,2041.03,3329.96,3258.99,3534.08,350.14,317.17,31.19,0000 0000 0000 0000 000000
2013-07-18 00:11:31,0.00,0.27,0.00,29.35,31.25,33.07,5.82,32.67,1015.64,2041.02,3329.95,3258.97,3534.04,349.97,316.45,31.19,0000 0000 0000 0000 000000
2013-07-18 00:12:31,-0.01,0.27,0.00,29.35,31.25,33.11,5.85,32.42,1015.65,2041.00,3329.89,3258.97,3534.03,349.62,316.51,31.20,0000 0000 0000 0000 000000
2013-07-18 00:13:32,-0.00,0.27,0.00,29.37,31.25,33.00,5.85,32.42,1015.66,2041.01,3329.69,3258.94,3534.01,349.52,316.41,31.20,0000 0000 0000 0000 000000
2013-07-18 00:14:32,0.04,0.27,0.00,29.39,31.25,33.07,5.92,33.25,1015.65,2041.01,3329.47,3258.81,3534.00,350.46,317.24,31.21,0000 0000 0000 0000 000000
2013-07-18 00:15:32,0.06,0.27,0.00,29.42,31.25,33.06,5.83,32.54,1015.64,2041.00,3329.28,3258.68,3534.00,350.04,316.39,31.22,0000 0000 0000 0000 000000
2013-07-18 00:16:32,0.03,0.27,0.00,29.44,31.25,33.05,5.78,32.46,1015.66,2041.00,3329.21,3258.67,3534.00,349.89,316.66,31.22,0000 0000 0000 0000 000000
2013-07-18 00:17:33,0.01,0.27,0.00,29.53,31.26,33.10,5.79,32.42,1015.65,2041.01,3329.13,3258.61,3534.00,349.73,316.44,31.23,0000 0000 0000 0000 000000
2013-07-18 00:18:33,0.02,0.27,0.00,29.55,31.27,33.16,5.92,32.63,1015.64,2041.00,3329.06,3258.48,3534.00,351.01,317.47,31.23,0000 0000 0000 0000 000000
2013-07-18 00:19:33,0.02,0.27,0.00,29.53,31.27,33.14,5.79,32.67,1015.64,2041.01,3329.04,3258.38,3534.00,349.60,316.28,31.24,0000 0000 0000 0000 000000
2013-07-18 00:20:33,0.04,0.27,0.00,29.53,31.27,33.25,5.73,32.38,1015.64,2041.00,3329.06,3258.42,3534.00,349.44,316.17,31.25,0000 0000 0000 0000 000000
2013-07-18 00:21:34,-0.04,0.27,0.00,29.55,31.27,33.21,5.92,32.75,1015.65,2041.00,3329.05,3258.33,3534.00,350.00,316.66,31.25,0000 0000 0000 0000 000000
2013-07-18 00:22:34,0.03,0.27,0.00,29.56,31.27,33.18,5.88,32.79,1015.65,2041.00,3329.03,3258.18,3533.99,350.42,317.26,31.26,0000 0000 0000 0000 000000
2013-07-18 00:23:34,0.03,0.27,0.00,29.54,31.28,33.14,5.87,32.38,1015.66,2041.00,3329.00,3258.07,3533.97,350.46,316.95,31.26,0000 0000 0000 0000 000000
2013-07-18 00:24:34,0.02,0.27,0.00,29.56,31.29,33.09,5.69,32.25,1015.67,2041.00,3329.00,3258.02,3533.92,348.26,315.19,31.27,0000 0000 0000 0000 000000
2013-07-18 00:25:34,0.01,0.27,0.00,29.57,31.30,33.16,5.73,32.54,1015.65,2041.00,3329.00,3258.00,3533.79,349.94,316.58,31.27,0000 0000 0000 0000 000000
2013-07-18 00:26:35,0.01,0.27,0.00,29.59,31.30,33.19,5.89,32.63,1015.66,2041.00,3329.00,3258.01,3533.73,349.49,316.16,31.28,0000 0000 0000 0000 000000
2013-07-18 00:27:35,0.00,0.27,0.00,29.59,31.30,33.19,5.96,32.92,1015.65,2041.00,3329.00,3258.00,3533.54,350.19,317.09,31.29,0000 0000 0000 0000 000000
2013-07-18 00:28:35,0.02,0.27,0.00,29.59,31.30,33.19,5.83,32.71,1015.65,2041.00,3328.95,3258.00,3533.30,350.07,316.52,31.29,0000 0000 0000 0000 000000
2013-07-18 00:29:35,0.04,0.27,0.00,29.63,31.30,33.12,5.68,32.63,1015.66,2041.00,3328.95,3258.00,3533.19,348.50,315.22,31.30,0000 0000 0000 0000 000000
2013-07-18 00:30:35,0.01,0.27,0.00,29.62,31.31,33.20,5.81,32.46,1015.65,2041.00,3328.87,3258.00,3533.12,349.33,316.34,31.30,0000 0000 0000 0000 000000
2013-07-18 00:31:36,0.02,0.27,0.00,29.61,31.32,33.12,5.91,32.42,1015.64,2041.00,3328.83,3258.00,3533.06,350.55,316.25,31.31,0000 0000 0000 0000 000000
2013-07-18 00:32:36,0.00,0.27,0.00,29.65,31.32,33.23,6.05,32.96,1015.64,2041.00,3328.76,3257.99,3533.03,350.54,317.09,31.32,0000 0000 0000 0000 000000
2013-07-18 00:33:36,0.02,0.27,0.00,29.65,31.32,33.17,5.67,32.50,1015.64,2041.00,3328.53,3257.98,3533.00,349.65,316.06,31.32,0000 0000 0000 0000 000000
2013-07-18 00:34:36,0.04,0.28,0.00,29.64,31.32,33.21,5.87,32.79,1015.64,2041.00,3328.25,3257.96,3533.00,350.76,317.24,31.33,0000 0000 0000 0000 000000
2013-07-18 00:35:36,0.03,0.28,0.00,29.67,31.33,33.16,5.79,32.38,1015.65,2041.00,3328.14,3257.94,3533.00,349.90,316.44,31.33,0000 0000 0000 0000 000000
2013-07-18 00:36:37,0.02,0.28,0.00,29.66,31.33,33.29,5.77,32.17,1015.67,2041.00,3328.06,3257.92,3533.00,350.54,317.03,31.34,0000 0000 0000 0000 000000
2013-07-18 00:37:37,0.00,0.28,0.00,29.65,31.35,33.30,5.78,32.25,1015.65,2040.99,3328.05,3257.85,3533.00,349.36,315.87,31.35,0000 0000 0000 0000 000000
2013-07-18 00:38:37,0.02,0.28,0.00,29.65,31.35,33.28,5.79,32.42,1015.64,2040.98,3328.03,3257.53,3533.00,349.06,315.70,31.35,0000 0000 0000 0000 000000
2013-07-18 00:39:37,0.06,0.28,0.00,29.64,31.35,33.23,5.63,32.38,1015.65,2040.97,3328.01,3257.32,3532.99,349.38,315.99,31.36,0000 0000 0000 0000 000000
2013-07-18 00:40:38,0.03,0.28,0.00,29.65,31.35,33.20,5.77,32.17,1015.64,2040.98,3328.00,3257.20,3532.97,350.04,316.86,31.36,0000 0000 0000 0000 000000
2013-07-18 00:41:38,0.02,0.28,0.00,29.69,31.35,33.23,5.79,32.58,1015.64,2040.97,3328.00,3257.13,3532.94,349.18,315.89,31.37,0000 0000 0000 0000 000000
2013-07-18 00:42:38,0.02,0.28,0.00,29.71,31.36,33.24,5.97,33.21,1015.64,2040.98,3328.00,3257.06,3532.75,350.02,316.51,31.37,0000 0000 0000 0000 000000
2013-07-18 00:43:39,0.04,0.28,0.00,29.71,31.37,33.24,5.74,32.92,1015.64,2040.96,3327.99,3257.02,3532.69,350.16,316.62,31.38,0000 0000 0000 0000 000000
2013-07-18 00:44:39,-0.02,0.28,0.00,29.72,31.37,33.31,5.86,32.63,1015.64,2040.90,3327.97,3257.00,3532.48,349.75,316.25,31.39,0000 0000 0000 0000 000000
2013-07-18 00:45:39,-0.01,0.28,0.00,29.74,31.37,33.24,5.70,32.38,1015.64,2040.90,3327.93,3257.00,3532.31,348.85,315.41,31.39,0000 0000 0000 0000 000000
2013-07-18 00:46:39,0.04,0.28,0.00,29.75,31.37,33.32,5.91,32.83,1015.64,2040.85,3327.94,3257.01,3532.22,349.65,315.72,31.40,0000 0000 0000 0000 000000
2013-07-18 00:47:39,-0.02,0.28,0.00,29.76,31.37,33.28,5.80,32.38,1015.64,2040.83,3327.90,3257.00,3532.15,349.55,315.62,31.40,0000 0000 0000 0000 000000
2013-07-18 00:48:39,-0.01,0.28,0.00,29.78,31.38,33.31,5.71,32.63,1015.64,2040.87,3327.81,3257.00,3532.09,349.74,316.35,31.41,0000 0000 0000 0000 000000
2013-07-18 00:49:40,0.05,0.28,0.00,29.78,31.39,33.31,5.83,32.67,1015.64,2040.90,3327.73,3257.00,3532.05,349.34,316.02,31.42,0000 0000 0000 0000 000000
2013-07-18 00:50:40,0.03,0.28,0.00,29.72,31.40,33.26,5.83,32.63,1015.64,2040.89,3327.44,3256.99,3532.02,350.31,316.75,31.42,0000 0000 0000 0000 000000
2013-07-18 00:51:40,0.07,0.28,0.00,29.72,31.40,33.33,5.83,32.38,1015.64,2040.90,3327.34,3256.98,3532.00,349.65,316.16,31.43,0000 0000 0000 0000 000000
2013-07-18 00:52:40,0.01,0.28,0.00,29.75,31.40,33.38,5.73,32.88,1015.64,2040.88,3327.24,3256.98,3532.00,349.96,315.85,31.43,0000 0000 0000 0000 000000
2013-07-18 00:53:40,-0.02,0.28,0.00,29.73,31.40,33.29,5.88,32.83,1015.64,2040.70,3327.14,3256.98,3532.00,350.16,316.43,31.44,0000 0000 0000 0000 000000
2013-07-18 00:54:41,-0.12,0.28,0.00,29.74,31.41,33.39,5.66,32.42,1015.64,2040.45,3327.08,3256.99,3532.00,349.76,316.19,31.44,0000 0000 0000 0000 000000
2013-07-18 00:55:41,-0.22,0.28,0.00,29.75,31.42,33.29,5.79,32.21,1015.64,2040.40,3327.03,3256.89,3532.00,349.13,315.65,31.45,0000 0000 0000 0000 000000
2013-07-18 00:56:41,0.00,0.28,0.00,29.77,31.42,33.35,5.85,32.54,1015.63,2040.26,3327.01,3256.80,3531.98,350.65,317.26,31.46,0000 0000 0000 0000 000000
2013-07-18 00:57:41,-0.08,0.28,0.00,29.79,31.42,33.29,5.92,32.46,1015.64,2040.28,3327.00,3256.74,3531.98,350.77,317.10,31.46,0000 0000 0000 0000 000000
2013-07-18 00:58:41,0.04,0.28,0.00,29.77,31.42,33.44,5.79,32.50,1015.64,2040.26,3327.01,3256.64,3531.94,348.48,315.05,31.47,0000 0000 0000 0000 000000
2013-07-18 00:59:42,0.02,0.28,0.00,29.78,31.43,33.34,5.87,32.42,1015.64,2040.21,3327.00,3256.42,3531.93,351.09,317.39,31.47,0000 0000 0000 0000 000000
2013-07-18 01:00:42,0.00,0.28,0.00,29.82,31.44,33.39,5.79,32.46,1015.64,2040.21,3327.00,3256.29,3531.86,349.95,316.33,31.48,0000 0000 0000 0000 000000
2013-07-18 01:01:42,0.05,0.28,0.00,29.85,31.45,33.36,5.90,32.42,1015.64,2040.15,3327.00,3256.13,3531.63,350.84,317.10,31.49,0000 0000 0000 0000 000000
2013-07-18 01:02:42,0.00,0.28,0.00,29.85,31.45,33.37,5.85,32.46,1015.63,2040.13,3327.00,3256.07,3531.42,349.82,316.50,31.49,0000 0000 0000 0000 000000
2013-07-18 01:03:43,0.04,0.28,0.00,29.80,31.45,33.40,5.86,32.75,1015.64,2040.09,3326.97,3256.03,3531.22,350.73,317.04,31.50,0000 0000 0000 0000 000000
2013-07-18 01:04:43,-0.02,0.28,0.00,29.80,31.46,33.28,5.93,32.46,1015.64,2040.07,3326.96,3256.01,3531.14,351.27,317.43,31.50,0000 0000 0000 0000 000000
2013-07-18 01:05:43,0.01,0.28,0.00,29.83,31.47,33.41,5.79,32.21,1015.63,2040.07,3326.96,3256.01,3531.11,350.28,316.26,31.51,0000 0000 0000 0000 000000
2013-07-18 01:06:43,-0.01,0.28,0.00,29.86,31.47,33.32,5.71,32.00,1015.64,2040.08,3326.95,3256.01,3531.12,349.79,315.79,31.51,0000 0000 0000 0000 000000
2013-07-18 01:07:44,0.02,0.28,0.00,29.85,31.47,33.42,5.87,32.13,1015.60,2040.09,3326.91,3256.00,3531.07,350.62,316.53,31.52,0000 0000 0000 0000 000000
2013-07-18 01:08:44,0.01,0.28,0.00,29.84,31.47,33.40,5.70,32.04,1015.57,2040.09,3326.80,3256.00,3531.05,349.15,315.59,31.53,0000 0000 0000 0000 000000
2013-07-18 01:09:44,0.01,0.28,0.00,29.82,31.48,33.40,5.88,32.75,1015.59,2040.04,3326.64,3256.00,3531.02,350.26,316.24,31.53,0000 0000 0000 0000 000000
2013-07-18 01:10:44,-0.01,0.28,0.00,29.79,31.50,33.45,5.80,32.75,1015.62,2040.02,3326.36,3256.00,3531.01,350.48,316.82,31.54,0000 0000 0000 0000 000000
2013-07-18 01:11:45,0.03,0.28,0.00,29.82,31.50,33.42,5.95,32.67,1015.63,2040.04,3326.22,3256.00,3531.01,350.71,317.01,31.54,0000 0000 0000 0000 000000
2013-07-18 01:12:45,0.02,0.28,0.00,29.81,31.50,33.46,5.87,32.71,1015.63,2040.03,3326.12,3256.00,3531.00,350.12,315.99,31.55,0000 0000 0000 0000 000000
2013-07-18 01:13:45,0.00,0.28,0.00,29.82,31.50,33.44,5.91,32.63,1015.64,2040.01,3326.07,3256.00,3531.00,350.43,316.50,31.56,0000 0000 0000 0000 000000
2013-07-18 01:14:45,-0.01,0.28,0.00,29.86,31.51,33.44,5.78,32.21,1015.64,2040.00,3326.07,3255.99,3530.99,350.59,316.86,31.56,0000 0000 0000 0000 000000
2013-07-18 01:15:45,0.00,0.28,0.00,29.87,31.52,33.46,5.70,32.29,1015.64,2040.00,3326.05,3255.98,3530.98,350.10,316.41,31.57,0000 0000 0000 0000 000000
2013-07-18 01:16:46,0.00,0.28,0.00,29.86,31.52,33.41,5.76,32.38,1015.64,2040.00,3326.02,3255.96,3530.99,349.87,316.21,31.57,0000 0000 0000 0000 000000
2013-07-18 01:17:46,0.00,0.28,0.00,29.84,31.52,33.43,5.82,31.88,1015.64,2040.01,3326.00,3255.88,3530.94,349.27,315.68,31.58,0000 0000 0000 0000 000000
2013-07-18 01:18:46,0.03,0.28,0.00,29.85,31.52,33.40,5.74,32.08,1015.64,2040.00,3326.00,3255.75,3530.80,350.45,316.74,31.58,0000 0000 0000 0000 000000
2013-07-18 01:19:46,0.04,0.28,0.00,29.86,31.53,33.45,5.89,32.38,1015.64,2040.00,3326.00,3255.53,3530.66,349.91,316.18,31.59,0000 0000 0000 0000 000000
2013-07-18 01:20:46,0.05,0.28,0.00,29.88,31.55,33.41,5.73,32.04,1015.64,2040.00,3326.00,3255.37,3530.46,349.83,316.15,31.60,0000 0000 0000 0000 000000
2013-07-18 01:21:46,0.05,0.28,0.00,29.89,31.55,33.49,5.92,32.42,1015.64,2040.00,3326.00,3255.23,3530.23,351.22,317.40,31.60,0000 0000 0000 0000 000000
2013-07-18 01:22:47,0.05,0.28,0.00,29.92,31.55,33.35,5.60,32.08,1015.64,2040.00,3325.98,3255.15,3530.14,349.05,315.42,31.61,0000 0000 0000 0000 000000
2013-07-18 01:23:47,0.02,0.28,0.00,29.92,31.55,33.48,5.73,32.00,1015.64,2040.00,3325.96,3255.09,3530.12,349.32,315.66,31.61,0000 0000 0000 0000 000000
2013-07-18 01:24:47,0.01,0.28,0.00,29.91,31.55,33.49,5.92,32.17,1015.64,2040.00,3325.86,3255.03,3530.05,350.20,316.46,31.62,0000 0000 0000 0000 000000
2013-07-18 01:25:48,0.03,0.28,0.00,29.93,31.57,33.42,5.72,31.96,1015.64,2040.00,3325.70,3255.01,3530.02,349.89,315.68,31.63,0000 0000 0000 0000 000000
2013-07-18 01:26:48,0.02,0.28,0.00,29.97,31.57,33.48,5.81,32.29,1015.64,2039.99,3325.42,3255.00,3530.00,349.03,315.82,31.63,0000 0000 0000 0000 000000
2013-07-18 01:27:48,0.03,0.28,0.00,29.93,31.57,33.49,5.90,32.63,1015.65,2039.99,3325.32,3255.00,3530.00,350.52,316.64,31.64,0000 0000 0000 0000 000000
2013-07-18 01:28:49,0.01,0.28,0.00,29.92,31.57,33.49,5.79,32.33,1015.64,2039.99,3325.21,3255.00,3530.00,349.75,315.79,31.64,0000 0000 0000 0000 000000
2013-07-18 01:29:49,0.01,0.28,0.00,29.91,31.58,33.52,5.80,32.21,1015.65,2039.99,3325.15,3255.00,3530.00,350.22,316.27,31.65,0000 0000 0000 0000 000000
2013-07-18 01:30:49,0.01,0.28,0.00,29.95,31.59,33.49,5.81,32.67,1015.65,2039.99,3325.13,3255.00,3530.00,348.37,314.78,31.66,0000 0000 0000 0000 000000
2013-07-18 01:31:49,0.00,0.28,0.00,29.94,31.60,33.43,5.87,32.50,1015.64,2039.99,3325.05,3255.00,3529.99,349.87,316.13,31.66,0000 0000 0000 0000 000000
2013-07-18 01:32:49,0.01,0.28,0.00,29.90,31.60,33.51,5.78,32.67,1015.64,2039.99,3325.03,3254.97,3529.97,349.44,316.48,31.67,0000 0000 0000 0000 000000
2013-07-18 01:33:49,0.01,0.28,0.00,29.90,31.60,33.44,5.91,32.42,1015.64,2039.98,3325.01,3254.98,3529.98,350.76,316.96,31.67,0000 0000 0000 0000 000000
2013-07-18 01:34:50,-0.01,0.28,0.00,29.89,31.60,33.52,5.70,32.21,1015.64,2039.98,3325.01,3254.96,3529.92,349.88,316.15,31.68,0000 0000 0000 0000 000000
2013-07-18 01:35:50,0.02,0.28,0.00,29.89,31.61,33.41,5.63,32.21,1015.64,2039.98,3325.00,3254.95,3529.89,349.10,315.75,31.68,0000 0000 0000 0000 000000
2013-07-18 01:36:50,0.00,0.28,0.00,29.91,31.62,33.54,5.80,32.33,1015.64,2039.98,3325.00,3254.95,3529.89,350.26,316.51,31.69,0000 0000 0000 0000 000000
2013-07-18 01:37:50,0.00,0.28,0.00,29.91,31.62,33.48,5.72,32.38,1015.64,2039.98,3325.00,3254.93,3529.79,349.18,315.37,31.70,0000 0000 0000 0000 000000
2013-07-18 01:38:50,0.01,0.28,0.00,29.92,31.62,33.52,5.77,32.17,1015.64,2039.99,3325.00,3254.78,3529.57,350.40,316.89,31.70,0000 0000 0000 0000 000000
2013-07-18 01:39:51,0.07,0.28,0.00,29.92,31.62,33.47,5.68,31.96,1015.64,2039.96,3325.00,3254.62,3529.36,349.65,316.42,31.71,0000 0000 0000 0000 000000
2013-07-18 01:40:51,0.04,0.28,0.00,29.92,31.63,33.51,5.92,32.63,1015.64,2039.92,3324.97,3254.39,3529.24,350.02,316.29,31.71,0000 0000 0000 0000 000000
2013-07-18 01:41:51,0.03,0.28,0.00,29.92,31.65,33.50,5.76,32.29,1015.64,2039.90,3324.89,3254.23,3529.12,350.21,316.46,31.72,0000 0000 0000 0000 000000
2013-07-18 01:42:51,0.05,0.28,0.00,29.90,31.65,33.58,5.84,32.25,1015.64,2039.85,3324.68,3254.09,3529.06,350.95,317.15,31.73,0000 0000 0000 0000 000000
2013-07-18 01:43:52,0.01,0.28,0.00,29.94,31.65,33.57,5.81,32.00,1015.64,2039.82,3324.61,3254.05,3529.03,349.51,315.81,31.73,0000 0000 0000 0000 000000
2013-07-18 01:44:52,-0.01,0.28,0.00,29.98,31.65,33.53,5.84,32.17,1015.64,2039.73,3324.37,3254.02,3529.00,350.46,316.61,31.74,0000 0000 0000 0000 000000
2013-07-18 01:45:52,-0.01,0.28,0.00,29.99,31.65,33.63,5.89,32.13,1015.64,2039.64,3324.32,3254.00,3529.00,350.12,315.97,31.74,0000 0000 0000 0000 000000
2013-07-18 01:46:52,-0.05,0.28,0.00,29.98,31.67,33.50,5.72,32.17,1015.64,2039.67,3324.24,3254.01,3529.00,348.92,315.23,31.75,0000 0000 0000 0000 000000
2013-07-18 01:47:52,0.02,0.28,0.00,29.95,31.67,33.56,5.82,32.21,1015.64,2039.64,3324.20,3254.00,3529.00,349.92,316.15,31.75,0000 0000 0000 0000 000000
2013-07-18 01:48:53,0.00,0.28,0.00,29.99,31.67,33.52,5.85,32.33,1015.63,2039.62,3324.11,3254.00,3529.00,349.87,316.39,31.76,0000 0000 0000 0000 000000
2013-07-18 01:49:53,-0.00,0.28,0.00,30.00,31.67,33.67,5.86,32.04,1015.62,2039.53,3324.05,3254.00,3528.99,350.47,316.38,31.77,0000 0000 0000 0000 000000
2013-07-18 01:50:53,-0.06,0.28,0.00,30.00,31.67,33.65,5.88,32.29,1015.59,2039.41,3324.02,3254.00,3528.97,350.05,316.45,31.77,0000 0000 0000 0000 000000
2013-07-18 01:51:53,-0.09,0.28,0.00,30.00,31.68,33.52,5.64,31.63,1015.59,2039.28,3324.00,3254.00,3528.94,348.50,315.00,31.78,0000 0000 0000 0000 000000
2013-07-18 01:52:54,-0.10,0.28,0.00,30.02,31.69,33.58,5.73,31.58,1015.62,2039.19,3324.00,3253.99,3528.90,350.34,316.46,31.78,0000 0000 0000 0000 000000
2013-07-18 01:53:54,-0.05,0.28,0.00,30.04,31.70,33.58,5.73,31.88,1015.62,2039.18,3324.00,3253.97,3528.86,348.84,315.08,31.79,0000 0000 0000 0000 000000
2013-07-18 01:54:54,-0.01,0.28,0.00,30.04,31.70,33.62,5.78,32.13,1015.61,2039.19,3324.00,3253.97,3528.84,350.73,316.80,31.80,0000 0000 0000 0000 000000
2013-07-18 01:55:54,0.01,0.28,0.00,30.03,31.70,33.51,5.69,32.21,1015.56,2039.15,3324.00,3253.94,3528.69,349.20,315.40,31.80,0000 0000 0000 0000 000000
2013-07-18 01:56:55,-0.01,0.28,0.00,29.99,31.70,33.67,6.02,32.75,1015.57,2039.13,3323.99,3253.89,3528.52,351.93,317.92,31.81,0000 0000 0000 0000 000000
2013-07-18 01:57:55,0.02,0.28,0.00,30.01,31.71,33.58,5.89,32.42,1015.56,2039.12,3323.99,3253.88,3528.43,350.18,316.25,31.81,0000 0000 0000 0000 000000
2013-07-18 01:58:55,0.01,0.28,0.00,30.02,31.72,33.68,5.73,32.17,1015.57,2039.09,3323.98,3253.80,3528.22,350.17,316.44,31.82,0000 0000 0000 0000 000000
2013-07-18 01:59:55,0.01,0.28,0.00,30.02,31.72,33.53,5.83,32.29,1015.61,2039.06,3323.97,3253.57,3528.08,350.32,316.44,31.82,0000 0000 0000 0000 000000
2013-07-18 02:00:56,0.05,0.28,0.00,30.03,31.72,33.64,5.82,32.33,1015.60,2039.03,3323.95,3253.39,3528.04,349.99,316.10,31.83,0000 0000 0000 0000 000000
2013-07-18 02:01:56,0.02,0.28,0.00,30.02,31.72,33.63,5.77,32.58,1015.63,2039.02,3323.83,3253.21,3528.01,350.28,316.31,31.84,0000 0000 0000 0000 000000
2013-07-18 02:02:56,0.03,0.28,0.00,30.02,31.73,33.66,5.66,32.50,1015.64,2039.01,3323.71,3253.15,3528.00,348.83,315.72,31.84,0000 0000 0000 0000 000000
2013-07-18 02:03:56,0.03,0.28,0.00,30.04,31.74,33.65,5.83,31.96,1015.62,2039.00,3323.63,3253.11,3528.01,349.76,315.91,31.85,0000 0000 0000 0000 000000
2013-07-18 02:04:57,0.01,0.28,0.00,30.05,31.75,33.55,5.76,32.00,1015.63,2039.00,3323.54,3253.07,3528.02,349.95,316.08,31.85,0000 0000 0000 0000 000000
2013-07-18 02:05:57,0.02,0.28,0.00,30.08,31.75,33.66,5.75,31.96,1015.63,2039.00,3323.31,3253.03,3528.00,349.75,315.87,31.86,0000 0000 0000 0000 000000
2013-07-18 02:06:57,0.03,0.28,0.00,30.09,31.75,33.55,5.62,32.04,1015.64,2039.00,3323.17,3253.01,3527.99,348.46,314.69,31.87,0000 0000 0000 0000 000000
2013-07-18 02:07:57,0.02,0.28,0.00,30.08,31.75,33.63,5.77,32.21,1015.63,2039.00,3323.07,3253.00,3527.94,349.91,316.02,31.87,0000 0000 0000 0000 000000
2013-07-18 02:08:57,0.02,0.28,0.00,30.08,31.75,33.59,5.79,32.42,1015.62,2039.00,3323.02,3253.00,3527.91,350.79,316.81,31.88,0000 0000 0000 0000 000000
2013-07-18 02:09:58,0.01,0.28,0.00,30.10,31.76,33.62,5.63,32.17,1015.63,2039.00,3323.00,3253.00,3527.86,348.39,314.62,31.88,0000 0000 0000 0000 000000
2013-07-18 02:10:58,0.01,0.28,0.00,30.09,31.77,33.62,5.79,31.88,1015.62,2039.00,3323.00,3253.00,3527.82,350.50,316.71,31.89,0000 0000 0000 0000 000000
2013-07-18 02:11:58,0.01,0.28,0.00,30.09,31.77,33.66,5.83,32.50,1015.60,2039.00,3323.00,3253.00,3527.70,349.64,316.03,31.90,0000 0000 0000 0000 000000
2013-07-18 02:12:59,0.01,0.28,0.00,30.10,31.77,33.61,5.77,32.25,1015.57,2039.00,3323.00,3252.99,3527.61,349.99,315.82,31.90,0000 0000 0000 0000 000000
2013-07-18 02:13:59,0.01,0.28,0.00,30.14,31.77,33.62,5.88,32.50,1015.57,2039.00,3322.99,3252.96,3527.38,351.02,316.55,31.91,0000 0000 0000 0000 000000
2013-07-18 02:14:59,0.03,0.28,0.00,30.14,31.78,33.68,5.87,32.04,1015.58,2039.00,3322.98,3252.90,3527.20,349.92,316.06,31.91,0000 0000 0000 0000 000000
2013-07-18 02:15:59,0.02,0.28,0.00,30.11,31.79,33.66,5.83,32.54,1015.57,2039.00,3322.95,3252.89,3527.10,350.22,316.11,31.92,0000 0000 0000 0000 000000
2013-07-18 02:17:00,0.02,0.28,0.00,30.11,31.80,33.70,5.86,32.46,1015.55,2039.00,3322.94,3252.82,3527.07,350.59,316.38,31.92,0000 0000 0000 0000 000000
2013-07-18 02:18:00,0.03,0.28,0.00,30.09,31.80,33.72,5.88,32.54,1015.54,2039.00,3322.95,3252.81,3527.03,350.59,315.71,31.93,0000 0000 0000 0000 000000
2013-07-18 02:19:00,0.02,0.28,0.00,30.08,31.80,33.65,5.82,32.42,1015.55,2039.00,3322.79,3252.53,3527.01,351.15,316.93,31.94,0000 0000 0000 0000 000000
2013-07-18 02:20:01,0.06,0.28,0.00,30.11,31.80,33.68,5.65,32.00,1015.49,2038.99,3322.69,3252.32,3527.00,349.14,315.73,31.94,0000 0000 0000 0000 000000
2013-07-18 02:21:01,0.05,0.28,0.00,30.13,31.81,33.61,5.92,32.21,1015.45,2038.99,3322.66,3252.29,3527.00,350.95,316.84,31.95,0000 0000 0000 0000 000000
2013-07-18 02:22:01,0.01,0.28,0.00,30.13,31.82,33.74,5.57,31.88,1015.40,2038.98,3322.47,3252.25,3527.00,349.15,315.77,31.95,0000 0000 0000 0000 000000
2013-07-18 02:23:01,0.03,0.28,0.00,30.14,31.82,33.62,5.77,32.08,1015.36,2038.99,3322.26,3252.11,3527.00,349.82,315.79,31.96,0000 0000 0000 0000 000000
2013-07-18 02:24:02,0.05,0.28,0.00,30.12,31.82,33.78,5.66,32.00,1015.25,2038.98,3322.16,3252.08,3527.00,350.06,315.99,31.97,0000 0000 0000 0000 000000
2013-07-18 02:25:02,0.02,0.28,0.00,30.10,31.82,33.71,5.66,31.71,1015.22,2038.98,3322.15,3252.06,3526.99,349.01,315.06,31.97,0000 0000 0000 0000 000000
2013-07-18 02:26:02,-0.00,0.28,0.00,30.13,31.82,33.73,5.91,32.42,1015.27,2038.97,3322.07,3252.05,3526.98,350.59,316.46,31.98,0000 0000 0000 0000 000000
2013-07-18 02:27:03,-0.00,0.28,0.00,30.14,31.83,33.80,5.77,32.08,1015.25,2038.96,3322.02,3252.02,3526.98,349.55,315.50,31.98,0000 0000 0000 0000 000000
2013-07-18 02:28:03,0.01,0.28,0.00,30.15,31.85,33.71,5.72,32.33,1015.25,2038.93,3322.00,3252.00,3526.91,349.18,315.28,31.99,0000 0000 0000 0000 000000
2013-07-18 02:29:03,0.00,0.28,0.00,30.16,31.85,33.73,5.82,31.75,1015.25,2038.90,3322.00,3252.00,3526.76,350.18,316.44,31.99,0000 0000 0000 0000 000000
2013-07-18 02:30:03,-0.01,0.28,0.00,30.16,31.85,33.67,5.79,32.21,1015.23,2038.87,3322.00,3252.00,3526.68,349.39,315.34,32.00,0000 0000 0000 0000 000000
2013-07-18 02:31:03,-0.02,0.28,0.00,30.18,31.85,33.75,5.73,31.79,1015.20,2038.78,3322.00,3252.00,3526.53,350.83,316.88,32.01,0000 0000 0000 0000 000000
2013-07-18 02:32:04,-0.04,0.28,0.00,30.18,31.85,33.73,5.83,32.00,1015.18,2038.68,3322.00,3252.00,3526.39,350.21,316.04,32.01,0000 0000 0000 0000 000000
2013-07-18 02:33:04,-0.08,0.28,0.00,30.16,31.86,33.71,5.75,32.13,1015.23,2038.68,3322.00,3252.00,3526.23,349.79,315.74,32.02,0000 0000 0000 0000 000000
2013-07-18 02:34:04,0.02,0.28,0.00,30.18,31.87,33.78,5.83,31.92,1015.21,2038.64,3321.99,3252.00,3526.12,349.91,315.78,32.02,0000 0000 0000 0000 000000
2013-07-18 02:35:05,-0.01,0.28,0.00,30.21,31.87,33.76,5.82,31.96,1015.17,2038.54,3321.96,3251.99,3526.06,350.51,316.27,32.03,0000 0000 0000 0000 000000
2013-07-18 02:36:05,-0.05,0.28,0.00,30.20,31.87,33.77,5.95,32.75,1015.17,2038.46,3321.93,3251.97,3526.03,350.60,316.37,32.04,0000 0000 0000 0000 000000